Weather observations for the past three days for
Austin Airport
Imperial (Metric)
Date Time (pdt) Wind (mph) Vis. (mi.) Weather Sky Cond. Temperature (ºF) Relative Humidity Wind Chill (°F) Heat Index (°F) Pressure Precipitation (in)
Air Dwpt 6 hour altimeter (in) sea level (mb) 1 hr 3 hr 6 hr
Max. Min.
12 19:35 E 7 10.00 Fair CLR 87.6 31.8 13% 84 30.17 0.0
12 19:15 E 10 10.00 Fair CLR 90.3 30.7 12% 86 30.16 0.0
12 18:55 E 9 10.00 Fair CLR 91 30.9 12% 87 30.16 0.0
12 18:35 NE 7 10.00 Fair CLR 90.9 33.3 13% 87 30.16 0.0
12 18:15 E 5 G 10 10.00 Fair CLR 92.5 31.6 11% 88 30.16 0.0
12 17:55 E 8 G 18 10.00 Fair CLR 93.7 30.7 11% 89 30.15 0.0
12 17:35 E 18 G 24 10.00 Fair CLR 93.9 32 11% 89 30.16 0.0
12 17:15 E 16 G 25 10.00 Fair CLR 95.9 31.8 10% 91 30.15 0.0
12 16:55 E 8 10.00 Fair CLR 95.7 30.7 97.2 90.9 10% 91 30.16 0.0
12 16:35 E 10 G 21 10.00 Fair CLR 95 30 10% 90 30.16 0.0
12 16:15 SW 5 10.00 Fair CLR 96.4 28.6 9% 91 30.17 0.0
12 15:55 W 5 10.00 Fair CLR 95.2 28.4 9% 90 30.17 0.0
12 15:35 NW 5 10.00 Fair CLR 95.2 28 9% 90 30.18 0.0
12 15:15 NE 7 10.00 Fair CLR 95.2 29.7 10% 90 30.18 0.0
12 14:55 S 5 10.00 Fair CLR 95.7 29.3 9% 91 30.19 0.0
12 14:35 SE 8 G 22 10.00 Fair CLR 94.6 29.3 10% 90 30.2 0.0
12 14:15 SE 10 10.00 Fair CLR 94.1 30 10% 89 30.2 0.0
12 13:55 NE 7 10.00 Fair CLR 95 28.6 9% 90 30.2 0.0
12 13:35 NW 8 10.00 Fair CLR 94.6 28.2 9% 90 30.21 0.0
12 13:15 W 5 10.00 Fair CLR 95.2 28 9% 90 30.21 0.0
12 12:55 W 3 10.00 Fair CLR 93.2 27.5 9% 89 30.22 0.0
12 12:35 NW 6 10.00 Fair CLR 95.2 28.9 9% 90 30.23 0.0
12 12:15 NE 3 10.00 Fair CLR 93.7 28.9 10% 89 30.24 0.0
12 11:55 N 6 10.00 Fair CLR 92.5 26.1 9% 88 30.24 0.0
12 11:35 NE 5 10.00 Fair CLR 92.5 27.1 9% 88 30.25 0.0
12 11:15 Calm 10.00 Fair CLR 91.2 26.4 10% 87 30.25 0.0
12 10:55 N 7 10.00 Fair CLR 90 28.4 90 43.7 11% 86 30.26 0.0
12 10:35 NW 5 10.00 Fair CLR 87.6 28.2 12% 84 30.27 0.0
12 10:15 N 3 10.00 Fair CLR 85.1 31.8 15% 82 30.27 0.0
12 09:55 Calm 10.00 Fair CLR 82.6 34.2 17% 80 30.28 0.0
12 09:35 Calm 10.00 Fair CLR 79.2 32.9 19% 78 30.28 0.0
12 09:15 Calm 10.00 Fair CLR 73.4 33.6 23% 30.28 0.0
12 08:55 Calm 10.00 Fair CLR 66.6 33.4 29% 30.28 0.0
12 08:35 N 7 10.00 Fair CLR 61.2 37.2 41% 30.28 0.0
12 08:15 SW 5 10.00 Fair CLR 61.7 34.5 36% 30.29 0.0
12 07:55 Calm 10.00 Fair CLR 61.2 36.9 41% 30.29 0.0
12 07:35 Calm 10.00 Fair CLR 61.7 30.2 30% 30.29 0.0
12 07:15 S 3 10.00 Fair CLR 59.4 31.5 35% 30.29 0.0
12 06:55 Calm 10.00 Fair CLR 55.2 31.3 40% 30.28 0.0
12 06:35 Calm 10.00 Fair CLR 49.8 30.2 47% 30.28 0.0
12 06:15 Calm 10.00 Fair CLR 46.8 29.8 52% 30.28 0.0
12 05:55 Calm 10.00 Fair CLR 44.2 28.9 55% 30.27 0.0
12 05:35 Calm 10.00 Fair CLR 46.2 29.3 52% 30.27 0.0
12 05:15 Calm 10.00 Fair CLR 47.5 29.8 51% 30.26 0.0
12 04:55 Calm 10.00 Fair CLR 45.9 29.3 70.7 43.9 53% 30.26 0.0
12 04:35 Calm 10.00 Fair CLR 44.2 29.3 56% 30.26 0.0
12 04:15 Calm 10.00 Fair CLR 45.9 29.3 53% 30.26 0.0
12 03:55 Calm 10.00 Fair CLR 51.4 32.9 49% 30.25 0.0
12 03:35 W 5 10.00 Fair CLR 49.5 34.2 56% 48 30.25 0.0
12 03:15 S 3 10.00 Fair CLR 50.5 30.2 46% 30.25 0.0
12 02:55 SE 5 10.00 Fair CLR 49.8 30.4 47% 49 30.25 0.0
12 02:35 SE 6 10.00 Fair CLR 48.7 30.2 49% 47 30.25 0.0
12 02:15 Calm 10.00 Fair CLR 52.2 32.2 47% 30.25 0.0
12 01:55 NW 7 10.00 Fair CLR 52.9 33.4 48% 30.25 0.0
12 01:35 Calm 10.00 Fair CLR 57 30.6 37% 30.25 0.0
12 01:15 Calm 10.00 Fair CLR 57.6 30.4 36% 30.25 0.0
12 00:55 S 5 10.00 Fair CLR 61.3 31.5 33% 30.25 0.0
12 00:35 SW 3 10.00 Fair CLR 61 33.3 35% 30.25 0.0
12 00:15 W 3 10.00 Fair CLR 67.3 32 27% 30.25 0.0
11 23:55 SW 8 10.00 Fair CLR 68.4 28.8 23% 30.25 0.0
11 23:35 S 3 10.00 Fair CLR 61.7 29.8 30% 30.25 0.0
11 23:15 S 6 10.00 Fair CLR 59.9 31.3 34% 30.24 0.0
11 22:55 SW 6 10.00 Fair CLR 61.5 32.7 94.1 61.5 34% 30.23 0.0
11 22:35 W 7 10.00 Fair CLR 64.8 35.4 34% 30.22 0.0
11 22:15 SW 3 10.00 Fair CLR 69.1 28.8 22% 30.22 0.0
11 21:55 SW 3 10.00 Fair CLR 64.6 28.8 26% 30.22 0.0
11 21:35 Calm 10.00 Fair CLR 67.1 30.4 25% 30.22 0.0
11 21:15 W 5 10.00 Fair CLR 69.6 32 25% 30.21 0.0
11 20:55 Calm 10.00 Fair CLR 73.8 33.1 23% 30.2 0.0
11 20:35 N 5 10.00 Fair CLR 79.5 31.5 17% 78 30.2 0.0
11 20:15 N 7 10.00 Fair CLR 82.8 33.3 17% 80 30.19 0.0
11 19:55 N 6 10.00 Fair CLR 84.9 34.2 16% 82 30.19 0.0
11 19:35 N 3 10.00 Fair CLR 86.9 33.3 15% 83 30.19 0.0
11 19:15 E 6 10.00 Fair CLR 88.9 32 13% 85 30.18 0.0
11 18:55 E 6 10.00 Fair CLR 92.3 31.3 11% 88 30.18 0.0
11 18:35 NE 6 10.00 Fair CLR 92.5 32 12% 88 30.18 0.0
11 18:15 NE 8 10.00 Fair CLR 93.2 32.7 12% 89 30.19 0.0
11 17:55 NE 12 10.00 Fair CLR 92.8 33.3 12% 88 30.19 0.0
11 17:35 N 9 10.00 Fair CLR 94.1 31.5 11% 89 30.19 0.0
11 17:15 NE 9 10.00 Fair CLR 93.7 32.2 11% 89 30.2 0.0
11 16:55 N 9 G 26 10.00 Fair CLR 92.8 32.4 97.9 90.1 12% 88 30.2 0.0
11 16:35 N 18 G 24 10.00 Fair CLR 91.4 32 12% 87 30.21 0.0
11 16:15 N 6 10.00 Partly Cloudy SCT110 93.4 31.1 11% 89 30.21 0.0
11 15:55 SW 12 10.00 Fair CLR 93.4 31.5 11% 89 30.21 0.0
11 15:35 NW 8 10.00 Fair CLR 94.6 31.1 10% 90 30.19 0.0
11 15:15 W 6 10.00 Fair CLR 96.3 31.1 10% 91 30.19 0.0
11 14:55 S 5 10.00 Fair CLR 95.2 29.5 10% 90 30.19 0.0
11 14:35 NE 5 10.00 Fair CLR 96.8 31.5 10% 92 30.2 0.0
11 14:15 NW 10 10.00 Fair CLR 97 31.8 10% 92 30.21 0.0
11 13:55 S 10 10.00 Fair CLR 96.4 30 9% 91 30.21 0.0
11 13:35 SW 7 10.00 Fair CLR 96.3 29.7 9% 91 30.22 0.0
11 13:15 SW 6 10.00 Fair CLR 95.2 30.6 10% 90 30.24 0.0
11 12:55 W 7 10.00 Fair CLR 94.6 31.5 11% 90 30.24 0.0
11 12:35 N 3 10.00 Fair CLR 93.9 31.1 11% 89 30.25 0.0
11 12:15 NE 7 10.00 Fair CLR 94.5 31.8 11% 90 30.25 0.0
11 11:55 Calm 10.00 Fair CLR 91.9 31.3 11% 88 30.26 0.0
11 11:35 SE 3 10.00 Fair CLR 91.2 31.5 12% 87 30.27 0.0
11 11:15 E 3 7.00 Fair CLR 91.4 32.9 12% 87 30.27 0.0
11 10:55 Calm 10.00 Fair CLR 89.6 32 90 41.7 13% 86 30.27 0.0
11 10:35 Calm 10.00 Fair CLR 87.8 32 13% 84 30.27 0.0
11 10:15 Calm 10.00 Fair CLR 87.3 31.8 14% 84 30.28 0.0
11 09:55 Calm 10.00 Fair CLR 85.8 34.5 16% 83 30.28 0.0
11 09:35 Calm 10.00 Fair CLR 82.6 35.2 18% 80 30.28 0.0
11 09:15 Calm 10.00 Fair CLR 79.7 36.1 21% 78 30.28 0.0
11 08:55 W 3 10.00 Fair CLR 76.1 35.6 23% 77 30.28 0.0
11 08:35 W 3 10.00 Fair CLR 73.8 34.9 24% 30.28 0.0
11 08:15 SW 6 10.00 Fair CLR 70.9 32.4 24% 30.28 0.0
11 07:35 SW 5 10.00 Fair CLR 64.4 30.2 28% 30.28 0.0
11 07:15 Calm 10.00 Fair CLR 60.3 29.5 31% 30.28 0.0
11 06:55 Calm 10.00 Fair CLR 55.9 28.4 35% 30.28 0.0
11 06:35 Calm 10.00 Fair CLR 50.9 28.2 42% 30.28 0.0
11 06:15 Calm 10.00 Fair CLR 48.7 27.7 44% 30.28 0.0
11 05:55 Calm 10.00 Fair CLR 42.1 24.8 50% 30.27 0.0
11 05:15 W 6 10.00 Fair CLR 51.3 26.6 38% 30.27 0.0
11 04:55 W 5 10.00 Fair CLR 47.8 27.5 64 44.4 45% 46 30.26 0.0
11 04:35 Calm 10.00 Fair CLR 49.5 26.6 41% 30.25 0.0
11 04:15 E 3 10.00 Fair CLR 44.6 26.4 49% 30.25 0.0
11 03:55 Calm 10.00 Fair CLR 45.3 27.3 49% 30.25 0.0
11 03:35 SW 5 10.00 Fair CLR 52.7 26.6 36% 30.25 0.0
11 03:15 SW 6 10.00 Fair CLR 50.2 29.5 45% 30.24 0.0
11 02:55 SW 3 10.00 Fair CLR 48.9 28.2 45% 30.24 0.0
11 02:35 Calm 10.00 Fair CLR 46.8 26.4 45% 30.24 0.0
11 02:15 Calm 10.00 Fair CLR 52 28.8 41% 30.24 0.0
11 01:55 SE 3 10.00 Fair CLR 53.8 27.9 37% 30.24 0.0
11 01:35 Calm 10.00 Fair CLR 53.8 27 36% 30.24 0.0
11 01:15 SW 8 10.00 Fair CLR 56.1 29.8 37% 30.23 0.0
11 00:55 W 5 10.00 Fair CLR 55.9 33.1 42% 30.24 0.0
11 00:35 Calm 10.00 Fair CLR 57 26.8 31% 30.24 0.0
11 00:15 S 8 10.00 Fair CLR 56.1 26.8 32% 30.22 0.0
10 23:55 SE 6 10.00 Fair CLR 55.2 27.1 34% 30.22 0.0
10 23:35 S 6 10.00 Fair CLR 61 29.1 30% 30.22 0.0
10 23:15 SW 7 10.00 Fair CLR 62.6 30.9 30% 30.21 0.0
10 22:55 SW 5 10.00 Fair CLR 60.6 23.5 99 60.4 24% 30.21 0.0
10 22:35 SW 7 10.00 Fair CLR 64.9 23 20% 30.21 0.0
10 22:15 S 5 10.00 Fair CLR 66.4 23.7 20% 30.21 0.0
10 21:55 S 3 10.00 Fair CLR 73.4 24.6 16% 30.2 0.0
10 21:35 Calm 10.00 Fair CLR 72.3 24.8 17% 30.2 0.0
10 21:15 Calm 10.00 Fair CLR 71.2 27 19% 30.19 0.0
10 20:55 W 7 10.00 Fair CLR 75.4 28 17% 76 30.18 0.0
10 20:35 N 9 10.00 Fair CLR 81.5 25.7 13% 79 30.18 0.0
10 20:15 N 7 10.00 Fair CLR 83.8 27.5 13% 81 30.17 0.0
10 19:55 NW 10 10.00 Fair CLR 88.9 27.5 11% 85 30.16 0.0
10 19:35 NW 9 10.00 Fair CLR 91.6 27.7 10% 87 30.16 0.0
10 19:15 NW 12 10.00 Fair CLR 93.6 27.5 9% 89 30.15 0.0
10 18:55 NW 12 10.00 Fair CLR 95.2 26.4 8% 90 30.15 0.0
10 18:35 NW 13 10.00 Fair CLR 96.8 26.6 8% 92 30.15 0.0
10 18:15 NW 9 G 17 10.00 Fair CLR 98.1 28.9 9% 93 30.14 0.0
10 17:35 W 7 10.00 Fair CLR 99 28.8 8% 94 30.14 0.0
10 12:55 W 5 10.00 Fair CLR 95.4 28 9% 90 30.21 0.0
10 12:35 Calm 10.00 Fair CLR 93.2 27.7 9% 89 30.21 0.0
10 12:15 W 6 10.00 Fair CLR 92.5 29.7 11% 88 30.22 0.0
10 11:55 NE 5 10.00 Fair CLR 91.4 31.1 12% 87 30.22 0.0
10 11:35 SE 5 10.00 Fair CLR 90.9 31.6 12% 87 30.22 0.0
10 11:15 E 5 10.00 Fair CLR 90.3 32.2 13% 86 30.22 0.0
10 10:55 S 3 10.00 Fair CLR 86.9 28.9 87.1 41.9 12% 83 30.23 0.0
10 10:35 N 3 10.00 Fair CLR 86.7 27.7 12% 83 30.24 0.0
10 10:15 N 3 10.00 Fair CLR 85.3 29.3 13% 82 30.24 0.0
10 09:55 W 3 10.00 Fair CLR 83.1 31.3 15% 80 30.24 0.0
10 09:35 Calm 10.00 Fair CLR 81.7 31.3 16% 79 30.24 0.0
10 09:15 Calm 10.00 Fair CLR 79.2 34 19% 78 30.24 0.0
10 08:55 Calm 10.00 Fair CLR 76.5 34 21% 77 30.24 0.0
10 08:35 Calm 10.00 Fair CLR 72.7 32 22% 30.25 0.0
10 08:15 Calm 10.00 Fair CLR 69.3 29.8 23% 30.25 0.0
10 07:55 Calm 10.00 Fair CLR 65.3 29.3 26% 30.25 0.0
10 07:35 Calm 10.00 Fair CLR 60.4 30.2 32% 30.24 0.0
10 07:15 Calm 10.00 Fair CLR 57.9 30.9 36% 30.24 0.0
10 06:55 Calm 10.00 Fair CLR 54.7 28.9 37% 30.24 0.0
10 06:35 Calm 10.00 Fair CLR 50.2 26.8 40% 30.24 0.0
10 06:15 Calm 10.00 Fair CLR 44.8 25.7 47% 30.23 0.0
10 05:55 Calm 10.00 Fair CLR 43.2 25.3 49% 30.22 0.0
10 05:35 Calm 10.00 Fair CLR 43 25.7 51% 30.22 0.0
10 05:15 Calm 10.00 Fair CLR 43.7 27 52% 30.22 0.0
10 04:55 Calm 10.00 Fair CLR 50.9 27.3 65.3 44.1 40% 30.21 0.0
10 04:35 SW 8 10.00 Fair CLR 49.1 32.5 53% 46 30.21 0.0
10 04:15 W 3 10.00 Fair CLR 45.7 27.3 49% 30.21 0.0
10 03:35 Calm 10.00 Fair CLR 48.7 26.8 43% 30.19 0.0
10 03:15 Calm 10.00 Fair CLR 47.5 26.4 44% 30.19 0.0
10 02:55 SE 5 10.00 Fair CLR 46.8 27.3 47% 45 30.19 0.0
10 02:35 N 3 10.00 Fair CLR 52.3 26.6 37% 30.19 0.0
10 02:15 NW 6 10.00 Fair CLR 52.3 30.7 44% 30.19 0.0
10 01:55 Calm 10.00 Fair CLR 55 28.4 36% 30.19 0.0
10 01:35 S 8 10.00 Fair CLR 54 28.4 37% 30.18 0.0
10 01:15 SE 10 10.00 Fair CLR 50.5 31.5 48% 30.18 0.0
10 00:55 Calm 10.00 Fair CLR 55.4 30.7 39% 30.18 0.0
10 00:35 NE 3 10.00 Fair CLR 57.6 31.6 37% 30.18 0.0
10 00:15 W 5 10.00 Fair CLR 57.6 36.3 45% 30.18 0.0
09 23:55 SW 3 10.00 Fair CLR 59.4 26.1 28% 30.18 0.0
09 23:35 SW 7 10.00 Fair CLR 65.3 26.6 23% 30.17 0.0
09 23:15 S 9 10.00 Fair CLR 60.1 31.8 35% 30.17 0.0
09 22:55 SW 6 10.00 Fair CLR 63.7 36.7 99 61.9 37% 30.16 0.0
09 22:35 W 3 10.00 Fair CLR 64.9 27.7 25% 30.16 0.0
09 22:15 SW 3 10.00 Fair CLR 71.2 29.1 21% 30.16 0.0
09 21:55 SW 3 10.00 Fair CLR 66.7 27.3 23% 30.16 0.0
09 21:35 S 3 10.00 Fair CLR 68.7 26.4 20% 30.15 0.0
09 21:15 E 3 10.00 Fair CLR 72.3 26.4 18% 30.14 0.0
09 20:55 E 6 10.00 Fair CLR 74.7 25.7 16% 30.13 0.0
09 20:35 NE 6 10.00 Fair CLR 79.3 26.6 14% 78 30.13 0.0
09 20:15 N 5 10.00 Fair CLR 83.1 25.2 12% 80 30.12 0.0
09 19:55 N 9 10.00 Fair CLR 89.4 24.8 9% 85 30.11 0.0
Date Time (pdt) Wind (mph) Vis. (mi.) Weather Sky Cond. Air Dwpt Max. Min. Relative Humidity Wind Chill (°F) Heat Index (°F) altimeter (in) sea level (mb) 1 hr 3 hr 6 hr
6 hour
Temperature (ºF) Pressure Precipitation (in)